Location: Frankfurt+am+Main
(50.1100°N, 8.4815°E)
Time: 07:43:08
(UTC+02:00)

ISS - Visible Passes

Search period start: 09 May 2021 00:00
Search period end: 19 May 2021 00:00
Orbit: 418 x 421 km, 51.6° (Epoch: 08 May)

Date Brightness Start Highest point End Pass type
(mag) Time Alt. Az. Time Alt. Az. Time Alt. Az.
09 May -2.0 02:03:26 24° E 02:03:26 24° E 02:05:00 10° ENE visible
09 May -3.4 03:36:22 21° W 03:38:30 67° N 03:41:53 10° E visible
09 May -3.7 05:12:03 10° WNW 05:15:27 87° N 05:18:51 10° ESE visible
10 May -0.9 01:17:27 10° E 01:17:27 10° E 01:17:30 10° E visible
10 May -3.6 02:50:22 53° WNW 02:51:02 74° N 02:54:25 10° ENE visible
10 May -3.5 04:24:37 10° WNW 04:28:00 74° N 04:31:24 10° E visible
11 May -3.1 02:04:21 51° ENE 02:04:21 51° ENE 02:06:58 10° ENE visible
11 May -3.4 03:37:16 11° WNW 03:40:32 67° N 03:43:54 10° E visible
12 May -1.7 01:18:16 21° ENE 01:18:16 21° ENE 01:19:32 10° ENE visible
12 May -3.4 02:51:11 24° WNW 02:53:03 65° N 02:56:26 10° E visible
12 May -3.8 04:26:34 10° WNW 04:29:58 75° SSW 04:33:20 10° ESE visible
13 May -3.5 02:05:02 54° WNW 02:05:34 67° N 02:08:56 10° E visible
13 May -3.8 03:39:08 10° WNW 03:42:32 87° NNE 03:45:55 10° ESE visible
14 May -3.3 01:18:38 57° NE 01:18:38 57° NE 01:21:29 10° ENE visible
14 May -3.6 02:51:41 10° WNW 02:55:04 75° N 02:58:27 10° E visible
14 May -3.3 04:28:35 10° W 04:31:47 39° SSW 04:34:58 10° SE visible
14 May -2.9 22:51:05 10° SSW 22:54:02 29° SE 22:55:39 19° E visible
15 May -3.8 00:27:15 10° WSW 00:30:38 86° NNW 00:34:01 10° ENE visible
15 May -3.5 02:04:13 10° WNW 02:07:35 67° N 02:10:58 10° E visible
15 May -3.7 03:41:05 10° WNW 03:44:25 55° SSW 03:47:44 10° SE visible
15 May -2.4 22:04:13 10° S 22:06:45 20° SE 22:09:19 10° E visible
15 May -3.9 23:39:49 10° WSW 23:43:11 76° SSE 23:46:35 10° ENE visible
16 May -3.4 01:16:45 10° W 01:20:06 65° N 01:23:29 10° E visible
16 May -3.9 02:53:37 10° WNW 02:57:00 74° SSW 03:00:23 10° ESE visible
16 May -2.4 04:30:55 10° W 04:33:26 19° SW 04:35:55 10° S visible
16 May -3.8 22:52:28 10° SW 22:55:46 57° SSE 22:59:06 10° ENE visible
17 May -3.4 00:29:15 10° W 00:32:37 67° N 00:35:59 10° E visible
17 May -3.8 02:06:11 10° WNW 02:09:34 88° NNE 02:12:57 10° ESE visible
17 May -2.9 03:43:12 10° W 03:46:08 28° SW 03:49:04 10° SSE visible
17 May -3.3 22:05:13 10° SW 22:08:24 41° SSE 22:11:37 10° E visible
17 May -3.6 23:41:46 10° W 23:45:08 73° N 23:48:31 10° ENE visible
18 May -3.6 01:18:43 10° WNW 01:22:06 75° N 01:22:56 47° E visible
18 May -1.2 02:55:37 10° W 02:55:49 11° W 02:55:49 11° W visible
18 May -3.8 22:54:17 10° WSW 22:57:40 86° NNW 23:01:03 10° ENE visible
